www.pogodaiklimat.ru

Погода и климат >> Архив погоды >> Япония >> Tokyo


АРХИВ ПОГОДЫ в Tokyo

Время (UTC), дата Ветер
(напр.,м/с)
 
Видим.   Явления Облачность Т
(С)
Тd
(С)
f
(%)
Тe
(С)
Тes
(С)
Комфортность P
(гПа)
Po
(гПа)
Тmin
(С)
Tmax
(С)
R
(мм)
R24
(мм)
S
(см)
01 16.06 СВ 3 н/о н/о +15.5 +14.1 91 +15 +15 очень
холодно
1013.2 1010.3
02 16.06 СВ 4 н/о н/о +16.1 +13.8 86 +15 +15 очень
холодно
1013.5 1010.6
03 16.06 СВ 4 20 км 9/8
[Cu Sc Ac As]
+17.5 +13.6 78 +17 +19 холодно 1013.2 1010.3
04 16.06 СВ 2 н/о н/о +17.3 +13.2 77 +18 +18 очень
холодно
1013.3 1010.4
05 16.06 В 4 н/о н/о +17.3 +13.4 78 +17 +17 очень
холодно
1013.2 1010.3
06 16.06 В 3 20 км в посл. час дождь 10/9
[Sc Ac As]
+17.1 +13.0 77 +17 +17 очень
холодно
1013.2 1010.3 0.0
07 16.06 В 3 н/о н/о +17.2 +13.1 77 +17 +17 очень
холодно
1013.3 1010.4
08 16.06 В 3 н/о н/о +16.8 +12.8 77 +17 +17 очень
холодно
1013.7 1010.8
09 16.06 В 2 20 км {дождь} 10/8
[Cu Sc Ac As]
+16.7 +12.7 77 +17 +17 холодно 1014.3 1011.4
10 16.06 СВ 3 н/о н/о +16.2 +13.1 82 +16 +16 очень
холодно
1015.0 1012.1
11 16.06 СВ 1 н/о н/о +16.1 +13.2 83 +17 +17 холодно 1015.4 1012.5
12 16.06 В 1 15 км {дождь} 10/8
[Cu Sc Ac As]
+16.1 +12.9 81 +17 +17 холодно 1015.9 1013.0 +18.4 0.0
13 16.06 СВ 3 н/о н/о +15.8 +13.1 84 +15 +15 очень
холодно
1016.4 1013.5
14 16.06 В 2 н/о н/о +15.8 +13.1 84 +16 +16 холодно 1016.4 1013.5
15 16.06 СВ 3 н/о н/о +15.5 +12.8 84 +15 +15 холодно 1015.7 1012.8
16 16.06 В 2 н/о н/о +15.7 +13.0 84 +16 +16 холодно 1015.7 1012.8
17 16.06 В 2 н/о н/о +15.6 +13.3 86 +16 +16 холодно 1015.9 1013.0
18 16.06 СВ 3 15 км 10/8
[Cu Sc Ac As]
+15.6 +13.3 86 +15 +15 холодно 1015.8 1012.9
19 16.06 В 2 н/о н/о +15.6 +13.3 86 +16 +16 очень
холодно
1016.1 1013.2
20 16.06 СВ 2 н/о н/о +15.6 +13.3 86 +15 +15 очень
холодно
1016.6 1013.7
21 16.06 СВ 2 15 км 10/9
[Cu Sc Ac As]
+16.0 +13.9 87 +16 +16 холодно 1016.9 1014.0
22 16.06 В 2 н/о н/о +16.0 +13.3 84 +16 +16 очень
холодно
1017.5 1014.6
23 16.06 СВ 2 н/о н/о +17.1 +14.0 82 +17 +17 холодно 1017.5 1014.6
00 17.06 ЮВ 2 20 км {дождь} 10/6
[Cu Sc Ac As]
+17.6 +13.5 77 +18 +20 холодно 1017.4 1014.5 +15.1 0.0
01 17.06 В 2 н/о н/о +19.0 +13.9 72 +21 +21 комфорт 1017.3 1014.4
02 17.06 Ю 2 н/о н/о +19.2 +14.3 73 +21 +21 комфорт 1017.2 1014.3
03 17.06 ЮВ 2 20 км 10/10
[Cu Sc]
+21.0 +15.8 72 +25 +25 комфорт 1016.2 1013.4
04 17.06 Ю 2 н/о н/о +21.5 +13.9 62 +24 +24 комфорт 1015.7 1012.9
05 17.06 Ю 3 н/о н/о +21.1 +13.6 62 +24 +24 комфорт 1015.8 1013.0
06 17.06 ЮВ 3 20 км 9/9
[Cu Sc Ac trans]
+22.2 +15.3 65 +26 +27 душно 1015.3 1012.5
07 17.06 ЮВ 3 н/о н/о +21.6 +15.0 66 +25 +25 комфорт 1015.5 1012.7
08 17.06 ЮВ 4 н/о н/о +21.0 +15.3 70 +24 +24 комфорт 1015.2 1012.4
09 17.06 ЮВ 4 20 км 9/4
[Cu Sc Ac trans Ci sp]
+20.9 +15.5 71 +24 +24 комфорт 1015.2 1012.4
10 17.06 Ю 3 н/о н/о +20.2 +16.1 77 +23 +23 комфорт 1015.4 1012.6
11 17.06 Ю 4 н/о н/о +20.3 +15.7 75 +23 +23 комфорт 1015.6 1012.8
12 17.06 ЮВ 3 20 км 9/3
[Sc Ac trans Ci sp]
+19.7 +15.8 78 +22 +22 комфорт 1015.7 1012.9 +22.5
13 17.06 ЮВ 3 н/о н/о +19.8 +15.9 78 +22 +22 комфорт 1015.9 1013.1
14 17.06 Ю 2 н/о н/о +18.6 +16.4 87 +20 +20 прохладно 1015.6 1012.7
15 17.06 Ю 2 н/о н/о +18.0 +16.9 93 +19 +19 прохладно 1014.9 1012.0
16 17.06 Ю 2 н/о н/о +18.1 +17.3 95 +19 +19 прохладно 1014.4 1011.5
17 17.06 Ю 1 н/о н/о +18.5 +17.4 93 +20 +20 по сезону 1013.9 1011.1
18 17.06 СЗ 2 20 км слабый дождь 9/9
[Sc]
+18.6 +17.3 92 +20 +20 по сезону 1013.5 1010.7 0.0
19 17.06 СЗ 3 н/о н/о +18.7 +16.9 89 +20 +20 прохладно 1013.7 1010.9
20 17.06 СЗ 2 н/о н/о +18.6 +16.9 90 +20 +20 прохладно 1014.0 1011.2
21 17.06 СЗ 1 15 км в посл. час дождь 9/9
[Sc Ac As Ci sp]
+18.9 +17.2 90 +21 +22 комфорт 1014.1 1011.3
22 17.06 З 2 н/о н/о +19.8 +17.2 85 +23 +23 комфорт 1014.2 1011.4
23 17.06 СЗ 2 н/о н/о +20.1 +17.7 86 +24 +24 комфорт 1014.1 1011.3
00 18.06 СЗ 3 8000 м дымка {дождь} 10/9
[Cu Sc Ac As]
+20.4 +17.2 82 +24 +25 комфорт 1014.0 1011.2 +17.7 0.0
01 18.06 СЗ 2 н/о н/о +20.2 +17.8 86 +24 +24 комфорт 1013.9 1011.1
02 18.06 ЮВ 2 н/о н/о +20.8 +17.8 83 +26 +26 душно 1013.3 1010.5
03 18.06 З 3 10 км 10/9
[Cu Sc Ac As]
+20.3 +17.5 84 +24 +25 комфорт 1012.7 1009.9
04 18.06 СЗ 2 н/о н/о +19.4 +18.4 94 +22 +22 комфорт 1012.4 1009.6
05 18.06 С 2 н/о н/о +19.7 +18.4 92 +23 +23 комфорт 1012.1 1009.3
06 18.06 СЗ 3 7000 м слабый дождь 10/10
[Cu Sc]
+19.3 +18.8 97 +22 +22 комфорт 1011.9 1009.1 0.0
07 18.06 ЮВ 1 н/о н/о +19.6 +19.6 100 +24 +24 комфорт 1010.9 1008.1
08 18.06 СВ 3 н/о н/о +20.2 +18.9 92 +24 +24 комфорт 1010.2 1007.4
09 18.06 С 2 4000 м слабый ливневой дождь 10/10
[Cu Sc]
+19.9 +18.9 94 +24 +24 комфорт 1010.5 1007.7
10 18.06 СЗ 2 н/о н/о +19.3 +19.0 98 +22 +22 комфорт 1010.6 1007.8
11 18.06 С 1 н/о н/о +19.2 +19.2 100 +22 +22 комфорт 1010.5 1007.7
12 18.06 С 3 8000 м слабый ливневой дождь 10/10
[Cu Sc]
+19.1 +19.1 100 +21 +21 комфорт 1010.7 1007.9 +21.2 2
13 18.06 С 2 н/о н/о +19.0 +19.0 100 +22 +22 комфорт 1010.6 1007.8
14 18.06 СЗ 3 н/о н/о +18.8 +18.8 100 +21 +21 комфорт 1010.2 1007.4
15 18.06 СЗ 2 н/о н/о +18.6 +18.6 100 +20 +20 по сезону 1009.8 1007.0
16 18.06 СЗ 2 н/о н/о +18.5 +18.5 100 +20 +20 прохладно 1009.4 1006.6
17 18.06 СЗ 2 н/о н/о +18.4 +18.4 100 +20 +20 по сезону 1009.0 1006.2
18 18.06 С 2 8000 м дымка {дождь} 10/10
[Sc]
+18.4 +18.1 98 +20 +20 по сезону 1009.2 1006.4 0.5
19 18.06 С 2 н/о н/о +18.6 +17.8 95 +20 +20 прохладно 1009.2 1006.4
20 18.06 С 2 н/о н/о +18.5 +17.9 96 +20 +20 прохладно 1009.4 1006.6
21 18.06 С 2 8000 м дымка 9/9
[Sc]
+19.1 +18.1 94 +22 +22 комфорт 1009.6 1006.8
22 18.06 С 2 н/о н/о +20.1 +18.4 90 +24 +24 комфорт 1009.8 1007.0
23 18.06 С 2 н/о н/о +21.0 +17.8 82 +26 +26 душно 1010.0 1007.2
00 19.06 СЗ 2 25 км 9/4
[Cu Sc Ac trans Ci sp]
+23.4 +19.1 77 +30 +35 очень
душно
1010.0 1007.2 +18.2 0.5
01 19.06 С 2 н/о н/о +23.7 +17.7 69 +28 +28 душно 1009.8 1007.0
02 19.06 С 2 н/о н/о +25.4 +18.1 64 +30 +30 душно 1009.5 1006.7
03 19.06 СВ 2 25 км 9/5
[Cu med, cong Ci sp]
+26.2 +17.3 58 +30 +39 душно 1009.0 1006.2
04 19.06 В 2 н/о н/о +27.2 +18.0 57 +32 +32 очень
душно
1008.1 1005.4
05 19.06 С 1 н/о н/о +27.4 +17.9 56 +32 +32 очень
душно
1008.2 1005.5
06 19.06 Ю 4 25 км 9/3
[Cu med, cong Ci sp]
+27.2 +18.0 57 +32 +36 очень
душно
1008.0 1005.3
07 19.06 Ю 3 н/о н/о +27.0 +17.8 57 +31 +31 душно 1008.1 1005.4
08 19.06 Ю 3 н/о н/о +25.7 +17.1 59 +30 +30 душно 1008.4 1005.6
09 19.06 ЮВ 3 25 км 9/1
[Cu med, cong Ac trans Ci sp]
+25.2 +17.7 63 +29 +30 душно 1008.6 1005.8
10 19.06 ЮВ 4 н/о н/о +24.2 +18.6 71 +29 +29 душно 1009.1 1006.3
11 19.06 Ю 5 н/о н/о +22.9 +18.9 78 +29 +29 очень
душно
1009.8 1007.0
12 19.06 ЮВ 5 25 км 9/1
[Cu hum Ac trans Ci sp]
+22.4 +19.2 82 +28 +28 душно 1010.0 1007.2 +28.8
13 19.06 ЮВ 4 н/о н/о +22.0 +19.2 84 +27 +27 душно 1009.8 1007.0
14 19.06 ЮВ 4 н/о н/о +21.7 +18.7 83 +27 +27 душно 1009.8 1007.0
15 19.06 ЮВ 4 н/о н/о +21.4 +18.8 85 +26 +26 душно 1009.5 1006.7
16 19.06 ЮВ 4 н/о н/о +21.4 +19.0 86 +26 +26 душно 1009.0 1006.2
17 19.06 ЮВ 4 н/о н/о +21.3 +19.2 88 +26 +26 душно 1008.6 1005.8
18 19.06 ЮВ 4 10 км слабый дождь 10/9
[Sc Ac As]
+21.2 +19.5 90 +26 +26 душно 1008.2 1005.4 0.0
19 19.06 ЮВ 3 н/о н/о +20.9 +20.1 95 +26 +26 душно 1007.9 1005.1
20 19.06 ЮВ 2 н/о н/о +20.7 +20.5 99 +26 +26 душно 1007.7 1004.9
21 19.06 ЮВ 3 6000 м слабый дождь 10/10 200 м
[Sc]
+20.6 +20.6 100 +26 +26 душно 1007.3 1004.5
22 19.06 ЮВ 4 н/о н/о +20.4 +20.4 100 +25 +25 комфорт 1006.7 1003.9
23 19.06 ЮВ 5 н/о н/о +20.7 +20.7 100 +26 +26 душно 1006.1 1003.3
00 20.06 ЮВ 4 4000 м ливневой дождь 10/10
[Cu med, cong]
+20.8 +20.6 99 +26 +26 душно 1005.6 1002.8 +20.1 8
01 20.06 Ю 3 н/о н/о +21.1 +21.1 100 +26 +26 душно 1005.4 1002.6
02 20.06 ЮВ 2 н/о н/о +20.9 +20.9 100 +27 +27 душно 1004.7 1001.9
03 20.06 В 3 4000 м слабый ливневой дождь 10/10
[Cu med, cong]
+21.1 +20.9 99 +26 +26 душно 1003.2 1000.4
04 20.06 СВ 3 н/о н/о +21.3 +21.1 99 +27 +27 душно 1001.9 999.1
05 20.06 СЗ 2 н/о н/о +21.7 +21.7 100 +28 +28 душно 1001.7 998.9
06 20.06 СЗ 3 4000 м слабый дождь {ливн. осадки} 10/10
[Cu Sc]
+21.4 +21.4 100 +27 +27 душно 1001.5 998.7 10
07 20.06 СЗ 3 н/о н/о +21.6 +21.6 100 +28 +28 очень
душно
1001.3 998.5
08 20.06 С 2 н/о н/о +21.3 +21.3 100 +27 +27 душно 1001.2 998.4
09 20.06 С 2 4000 м слабый дождь 10/9
[Cu Sc As op]
+21.1 +21.1 100 +26 +26 душно 1001.8 999.0
10 20.06 СВ 2 н/о н/о +20.4 +20.4 100 +26 +26 душно 1002.4 999.6
11 20.06 СВ 2 н/о н/о +20.2 +20.2 100 +25 +25 комфорт 1001.8 999.0
12 20.06 С 3 10 км слабый ливневой дождь 10/10
[Cu Sc]
+19.7 +19.7 100 +23 +23 комфорт 1003.0 1000.2 +21.7 12
13 20.06 В 3 н/о н/о +19.8 +19.8 100 +23 +23 комфорт 1002.8 1000.0
14 20.06 В 2 н/о н/о +19.6 +19.6 100 +23 +23 комфорт 1002.3 999.5
15 20.06 СВ 3 н/о н/о +19.4 +19.4 100 +22 +22 комфорт 1001.5 998.7
16 20.06 СВ 3 н/о н/о +19.3 +19.3 100 +22 +22 комфорт 1000.7 997.9
17 20.06 СВ 3 н/о н/о +19.1 +19.1 100 +21 +21 комфорт 1000.2 997.4
18 20.06 СВ 3 4000 м слабый ливневой дождь 10/10
[Cu med, cong]
+19.1 +19.1 100 +21 +21 комфорт 999.4 996.6 6
19 20.06 С 2 н/о н/о +19.2 +19.2 100 +22 +22 комфорт 1000.3 997.5
20 20.06 С 1 н/о н/о +19.4 +19.4 100 +23 +23 комфорт 1000.3 997.5
21 20.06 С 1 4000 м дымка {ливн. осадки} 10/9
[Cu med, cong Ac As]
+19.7 +19.7 100 +24 +24 комфорт 1001.0 998.2
22 20.06 Ю 1 н/о н/о +20.4 +20.4 100 +26 +26 душно 1001.8 999.0
23 20.06 Ю 1 н/о н/о +20.5 +20.5 100 +26 +26 душно 1001.8 999.0
00 21.06 Ю 2 8000 м дымка {ливн. осадки} 10/9
[Cu Sc Ac As]
+21.0 +20.7 98 +27 +28 душно 1001.8 999.0 +19.0 7
01 21.06 Ю 3 н/о н/о +21.5 +21.2 98 +27 +27 душно 1002.5 999.7
02 21.06 Ю 3 н/о н/о +21.9 +20.5 92 +28 +28 душно 1002.5 999.7
03 21.06 Ю 2 8000 м в посл. час дождь 10/6
[Cu Sc Ac As]
+23.4 +20.9 86 +31 +34 очень
душно
1002.8 1000.0
04 21.06 ЮВ 3 н/о н/о +22.9 +20.4 86 +30 +30 очень
душно
1002.5 999.7
05 21.06 ЮВ 2 н/о н/о +22.9 +20.4 86 +30 +30 очень
душно
1002.1 999.3
06 21.06 ЮВ 3 8000 м дымка {дождь} 10/8 300 м
[Cu Sc Ac As]
+22.5 +21.3 93 +30 +30 очень
душно
1002.4 999.6 0.0
07 21.06 ЮВ 2 н/о н/о +23.0 +21.5 91 +31 +31 очень
душно
1002.0 999.2
08 21.06 Ю 2 н/о н/о +23.6 +21.5 88 +30 +30 очень
душно
1001.6 998.8
09 21.06 ЮЗ 3 15 км 9/4
[Cu Sc Ac As Ci sp]
+23.1 +20.4 85 +30 +30 очень
душно
1002.2 999.4
10 21.06 ЮЗ 2 н/о н/о +22.2 +20.7 91 +29 +29 очень
душно
1003.0 1000.2
11 21.06 З 1 н/о н/о +21.2 +20.5 96 +26 +26 душно 1003.5 1000.7
12 21.06 Ю 2 15 км 8/1
[Cu hum Ac trans Ci sp]
+20.6 +20.3 98 +26 +26 душно 1004.1 1001.3 +24.4 0.0
13 21.06 З 2 н/о н/о +20.4 +20.4 100 +25 +25 комфорт 1004.4 1001.6
14 21.06 СЗ 1 н/о н/о +20.7 +20.7 100 +27 +27 душно 1004.5 1001.7
15 21.06 С 1 н/о н/о +20.2 +20.2 100 +25 +25 комфорт 1005.0 1002.2
16 21.06 СЗ 2 н/о н/о +20.2 +20.2 100 +25 +25 комфорт 1004.7 1001.9
17 21.06 СЗ 3 н/о н/о +20.1 +20.1 100 +24 +24 комфорт 1005.2 1002.4
18 21.06 СЗ 2 15 км 1/0
[Ci sp]
+20.0 +20.0 100 +24 +24 комфорт 1005.9 1003.1
19 21.06 СЗ 2 н/о н/о +19.7 1006.2 1003.4
20 21.06 З 2 н/о н/о +19.6 1007.1 1004.3
21 21.06 С 2 15 км 8/0
[Ci sp]
+20.5 +20.5 100 +26 +27 душно 1007.5 1004.7
22 21.06 С 3 н/о н/о +21.4 +16.6 74 +25 +25 комфорт 1007.9 1005.1
23 21.06 СЗ 4 н/о н/о +23.9 +17.6 68 +28 +28 душно 1007.7 1004.9
00 22.06 СЗ 2 15 км 9/1
[Cu med, cong Ci sp]
+25.1 +17.6 63 +29 +40 душно 1007.9 1005.1 +19.4
01 22.06 СЗ 2 н/о н/о +25.4 +17.9 63 +30 +30 душно 1007.8 1005.0
02 22.06 Ю 3 н/о н/о +24.8 +20.1 75 +30 +30 душно 1008.1 1005.3
03 22.06 ЮВ 2 10 км 9/3
[Cu med, cong Ci sp]
+27.0 +19.6 64 +33 +45 очень
душно
1007.5 1004.8
04 22.06 ЮВ 5 н/о н/о +26.2 +19.8 68 +32 +32 очень
душно
1007.1 1004.4
05 22.06 ЮВ 6 н/о н/о +25.9 +17.8 61 +30 +30 душно 1007.2 1004.4
06 22.06 ЮВ 6 15 км 9/1
[Cu hum Ci sp]
+26.3 +18.7 63 +31 +35 душно 1007.1 1004.4
07 22.06 ЮВ 5 н/о н/о +25.7 +20.5 73 +32 +32 очень
душно
1007.3 1004.5
08 22.06 ЮВ 6 н/о н/о +25.8 +20.4 72 +32 +32 очень
душно
1007.1 1004.3
09 22.06 Ю 3 15 км 9/1
[Cu med, cong Ci sp]
+25.3 +20.6 75 +31 +32 очень
душно
1007.3 1004.5
10 22.06 Ю 2 н/о н/о +23.9 +20.3 80 +30 +30 очень
душно
1007.5 1004.7
11 22.06 ЮВ 3 н/о н/о +23.4 +20.2 82 +31 +31 очень
душно
1008.2 1005.4
12 22.06 Ю 3 15 км 9/0
[Ci sp]
+22.4 +18.6 79 +28 +28 душно 1008.7 1005.9 +28.1
13 22.06 ЮВ 2 н/о н/о +21.4 +18.8 85 +26 +26 душно 1009.0 1006.2
14 22.06 Ю 2 н/о н/о +20.5 +19.2 92 +25 +25 комфорт 1009.0 1006.2
15 22.06 С 1 н/о н/о +20.4 +19.2 93 +25 +25 комфорт 1008.9 1006.1
16 22.06 В 1 н/о н/о +20.7 +20.1 96 +26 +26 душно 1009.0 1006.2
17 22.06 СВ 2 н/о н/о +20.8 +20.0 95 +26 +26 душно 1008.8 1006.0
18 22.06 СВ 2 10 км 9/0
[Ci sp]
+20.8 +20.3 97 +26 +26 душно 1008.8 1006.0
19 22.06 СВ 2 н/о н/о +20.3 +20.3 100 +25 +25 комфорт 1008.7 1005.9
20 22.06 С 2 н/о н/о +20.9 +19.6 92 +26 +26 душно 1008.8 1006.0
21 22.06 СВ 1 5000 м дымка 10/3
[Sc Ac As]
+21.1 +19.9 93 +26 +26 душно 1009.1 1006.3
22 22.06 СВ 2 н/о н/о +21.2 +19.9 92 +26 +26 душно 1009.4 1006.6
23 22.06 С 2 н/о н/о +21.7 +19.8 89 +27 +27 душно 1009.4 1006.6
00 23.06 СЗ 2 6000 м дымка 10/3
[Cu Sc Ac As]
+21.9 +19.7 87 +27 +30 душно 1008.7 1005.9 +20.2
01 23.06 С 1 н/о н/о +22.2 +20.0 87 +28 +28 душно 1008.1 1005.3

 

Местоположение метеостанции Tokyo (Япония): широта 35.68 долгота 139.76 высота над уровнем моря 36 м.

В архиве по умолчанию представлена погода в Tokyo за последнюю неделю. Архивные данные за месяц целиком и за предыдущие месяцы, начиная с января 2011 года, Вы можете получить, выбрав интересующий диапазон дат из раскрывающегося списка и нажав кнопку "Ввод!".


*Определитесь, кто Вы:
робот инопланетянин человек

Внимание! Время в таблицах - всемирное. Для получения местного времени необходимо прибавить поправку, которая в Tokyo равна 9 ч.

Смотрите также архив погоды в соседних городах и на ближайших метеорологических станциях:

Погода в Yokohama (Япония) (30 км)
Погода в Chiba (Япония) (32 км)
Погода в Kumagaya (Япония) (62 км)
Погода в Chichibu (Япония) (71 км)
Погода в Katsuura (Япония) (77 км)
Погода в Tateyama (Япония) (78 км)
Погода в Ajiro (Япония) (92 км)
Погода в Kawaguchiko (Япония) (93 км)
Погода в Utsunomiya (Япония) (97 км)
Погода в Mishima (Япония) (98 км)

Пояснения к столбцам:

Ветер - указаны скорость ветра в м/с - средняя за 10 мин, порывы в срок и между сроками (в фигурных скобках) и направление, откуда дует ветер: С - северный, СВ - северо-восточный, В - восточный, ЮВ - юго-восточный, Ю - южный, ЮЗ - юго-западный, З - западный, СЗ - северо-западный.
Видимость - горизонтальная дальность видимости в метрах или километрах. При видимости от 1 до 10 км при отсутствии осадков обычно наблюдается дымка, при ухудшении видимости до 1 км и менее - туман. В сухую погоду видимость может ухудшаться дымом, пылью или мглою.
Явления - указаны атмосферные явления, наблюдавшиеся в срок или в последний час перед сроком; фигурными скобками обозначены явления, наблюдавшиеся между сроками (за 1-3 часа до срока); квадратными скобками обозначены град или гололедные отложения с указанием их диаметра в мм.
Облачность - указаны через наклонную черту общая и нижняя облачность в баллах и высота нижней границы облаков в метрах; квадратными скобками обозначены формы облаков: Ci - перистые, Cs - перисто-слоистые, Cc - перисто-кучевые, Ac - высококучевые, As - высокослоистые, Sc - слоисто-кучевые, Ns - слоисто-дождевые, Cu - кучевые, Cb - кучево-дождевые. Подробнее классификацию облаков см. в Атласе облаков (PDF).
T - Температура воздуха - температура, измеренная на высоте 2 м над землей.
Td - Температура точки росы - температура, при понижении до которой содержащийся в воздухе водяной пар достигнет насыщения.
f - Относительная влажность воздуха - влажноcть воздуха, измеренная на высоте 2 м над землей.
Te - Эффективная температура - температура, которую ощущает одетый по сезону человек в тени. Характеристика душности погоды. При расчете учитывается влияние влажности воздуха и скорости ветра на теплоощущения человека.
Tes - Эффективная температура на солнце - температура, которую ощущает человек, с поправкой на солнечный нагрев. Характеристика знойности погоды. Зависит от высоты солнца над горизонтом, облачности и скорости ветра. Ночью, в пасмурную погоду, а также при ветре 12 м/с и более поправка равна нулю.
P - Атмосферное давление - приведенное к уровню моря атмосферное давление.
Po - Атмосферное давление - измеренное на уровне метеостанции атмосферное давление.
Tmin - Минимальная температура - минимум температуры воздуха на высоте 2 м над землей.
Tmax - Максимальная температура - максимум температуры воздуха на высоте 2 м над землей.
R - Количество осадков - Количество выпавших осадков за период времени, мм. При наведении курсора мыши на число - период времени, за который выпало указанное количество осадков.
R24 - Количество осадков - Количество выпавших осадков за 24 часа, мм.
S - Снежный покров - Высота снежного покрова, см. При наведении курсора мыши на число - состояние снежного покрова и степень покрытия местности в баллах.